{"data":{"norad_id":63183,"intl_designator":"2025-048A","name":"STARLINK-11602 [DTC]","alt_names":[],"object_type":"PAYLOAD","status":"ACTIVE","operator":null,"country":"US","launch_date":"2025-03-13","launch_site_code":"AFETR","launch_vehicle":null,"mission":null,"orbit_class":"UNKNOWN","rcs_meters":null,"size_class":null,"mass_kg":null,"dimensions":null,"purposes":["comms"],"wikipedia_slug":null,"has_3d_model":false,"image_url":null,"decayed_at":null,"tle_current":{"epoch":"2026-05-24T21:36:26.194752Z","epoch_age_seconds":79586,"freshness":"FRESH","line1":"1 63183U 25048A   26144.90030318  .00168198  00000+0  12843-2 0  9993","line2":"2 63183  43.0004 220.8369 0002851 284.8313  75.2239 15.70904659 70123","mean_motion":15.70904659,"eccentricity":0.0002851,"inclination_deg":43.0004,"raan_deg":220.8369,"arg_perigee_deg":284.8313,"mean_anomaly_deg":75.2239,"bstar":0.0012843,"rev_number":7012,"period_min":91.666925280919,"perigee_km":354.39026947047,"apogee_km":358.23025129834,"semimajor_km":6734.4472603844,"source":"CELESTRAK","updated_at":"2026-05-25T13:38:19.918603Z"}}}